Miscellaneous Local Product
Issued by NWS Hastings, NE

Home | Current Version | Previous Version | Graphics & Text | Print | Product List | Glossary On
Versions: 1 2 3 4 5 6 7 8 9 10 11 12 13 14 15 16 17 18 19 20 21 22 23 24 25 26 27 28 29 30 31 32 33 34 35 36 37 38 39 40 41 42 43 44 45 46 47 48 49 50
000
AXUS43 KGID 280602
MISGRI

GID CWA HOURLY WEATHER ROUNDUP
NATIONAL WEATHER SERVICE HASTINGS NE
100 AM CDT TUE APR 28 2015

NOTE: "FAIR" INDICATES FEW OR NO CLOUDS BELOW 12,000 FEET WITH NO
SIGNIFICANT WEATHER AND/OR OBSTRUCTIONS TO VISIBILITY.

...SOUTH CENTRAL NEBRASKA...

CITY           SKY/WX    TMP DP  RH WIND       PRES   REMARKS
GRAND ISLAND   CLEAR     42  34  73 NW3       30.22R
HASTINGS       PTCLDY    43  36  76 NW7       30.21R
KEARNEY        CLEAR     45  32  61 NW6       30.23S
ORD            CLEAR     46  36  68 NW10      30.24R
YORK           CLEAR     46  34  61 NE3       30.20S
AURORA         CLEAR     44  35  73 N8        30.21R
LEXINGTON      CLEAR     41  34  76 CALM      30.24R
HOLDREGE       PTCLDY    42  32  69 NW5       30.23R
HEBRON         PTCLDY    45  34  65 CALM      30.18S

...NEBRASKA PANHANDLE...

CITY           SKY/WX    TMP DP  RH WIND       PRES   REMARKS
CHADRON        CLOUDY    45  42  89 CALM      30.36S
ALLIANCE       MOCLDY    41  39  93 N7        30.34R
SCOTTSBLUFF    CLOUDY    47  41  80 N5        30.36R
SIDNEY         CLOUDY    46  41  82 N8        30.34R

...WESTERN AND NORTH CENTRAL NEBRASKA...

CITY           SKY/WX    TMP DP  RH WIND       PRES   REMARKS
VALENTINE      CLOUDY    46  40  79 N8        30.33R
AINSWORTH      PTCLDY    46  41  84 N9        30.31R
ONEILL         CLEAR     49  43  79 NW10      30.26R
BROKEN BOW     PTCLDY    50  40  68 N14       30.26R
IMPERIAL       MOCLDY    45  34  65 N9        30.27R
NORTH PLATTE   PTCLDY    50  40  68 N14       30.28R
MCCOOK         PTCLDY    43  35  73 NW3       30.24R

...EASTERN NEBRASKA...

CITY           SKY/WX    TMP DP  RH WIND       PRES   REMARKS
NORFOLK        PTCLDY    47  29  49 CALM      30.21R
SO SIOUX CITY  CLEAR     43  29  57 N5        30.20R
TEKAMAH        PTCLDY    44  34  67 CALM      30.19R
COLUMBUS       PTCLDY    43  32  65 CALM      30.22R
ALBION         PTCLDY    42  33  70 NW3       30.21R
OMAHA EPPLEY   MOCLDY    44  39  82 NW7       30.18R
OFFUTT AFB     CLEAR     45  38  75 W3        30.17S
MILLARD        CLEAR     49  38  66 CALM      30.18S
LINCOLN        PTCLDY    44  36  73 N5        30.20R
NEBRASKA CITY  PTCLDY    53  28  38 N6        30.17R
BEATRICE       PTCLDY    44  36  71 NE9       30.17S
FALLS CITY     PTCLDY    50  35  56 N6        30.15S

...NORTHERN KANSAS...

CITY           SKY/WX    TMP DP  RH WIND       PRES   REMARKS
GOODLAND       PTCLDY    39  34  82 W5        30.27R
HILL CITY      PTCLDY    41  35  79 W3        30.22R
NORTON         CLEAR     41  32  70 N8        30.22R
PHILLIPSBURG   CLEAR     43  37  81 NW5       30.22R
SMITH CENTER   CLEAR     36  32  87 N6        30.20S WCI  31
BELOIT         CLEAR     41  36  81 CALM      30.17S
HAYS           PTCLDY    39  27  60 NW7       30.19S WCI  34
RUSSELL        PTCLDY    43  36  76 NW8       30.18R
CONCORDIA      PTCLDY    50  35  56 N3        30.17R
SALINA         MOCLDY    46  37  71 NW6       30.16S
TOPEKA         MOCLDY    46  40  79 CALM      30.14S



USA.gov is the U.S. government's official web portal to all federal, state and local government web resources and services.